Change the Weather History Date:

Friday, September 13, 2013

  Actual Average Record
Temperature  
Mean Temperature 58 °F -  
Max Temperature 66 °F 79 °F 95 °F (1939)
Min Temperature 48 °F 54 °F 37 °F (1941)
Degree Days  
Heating Degree Days 7    
Growing Degree Days 8 (Base 50)    
Moisture  
Dew Point 50 °F    
Average Humidity 74    
Maximum Humidity 93    
Minimum Humidity 56    
Precipitation  
Precipitation 0.01 in - - ()
Sea Level Pressure  
Sea Level Pressure 29.98 in    
Wind  
Wind Speed 7 mph (NNW)    
Max Wind Speed 13 mph    
Max Gust Speed 21 mph    
Visibility 10 miles    
Events      
Averages and records for this station are not official NWS values.
T = Trace of Precipitation, MM = Missing Value Source: NWS Daily Summary

Daily Weather History Graph

Daily Weather History Graph

Search for Another Location

Airport or City:

Trip Planner

Search our weather history database for the weather conditions in past years. The results will help you decide how hot, cold, wet, or windy it might be!

Date:

Astronomy

Sep. 13, 2013 Rise Set
Actual Time 7:09 AM EDT 7:41 PM EDT
Civil Twilight 6:41 AM EDT 8:08 PM EDT
Nautical Twilight 6:09 AM EDT 8:40 PM EDT
Astronomical Twilight 5:36 AM EDT 9:13 PM EDT
Moon 3:30 PM EDT (9/13) 12:37 AM EDT (9/13)
Length of Visible Light 13h 26m
Length of Day
12h 32m
First Quarter, 61% of the Moon is Illuminated
Sep 13
First Quarter
Sep 19
Full
Sep 26
Last Quarter
Oct 4
New
Oct 11
First Quarter

Hourly Weather History & Observations

Time (EDT) Temp. Dew Point Humidity Pressure Visibility Wind Dir Wind Speed Gust Speed Precip Events Conditions
12:54 AM 61.0 °F 55.9 °F 83% 29.89 in 10.0 mi North 3.5 mph - N/A   Overcast
1:54 AM 60.1 °F 55.9 °F 86% 29.90 in 10.0 mi North 4.6 mph - N/A   Scattered Clouds
2:54 AM 59.0 °F 57.0 °F 93% 29.90 in 10.0 mi NW 8.1 mph - N/A   Partly Cloudy
3:39 AM 60.8 °F 57.2 °F 88% 29.92 in 10.0 mi NNW 9.2 mph - N/A   Overcast
3:54 AM 61.0 °F 57.0 °F 87% 29.91 in 10.0 mi NNW 10.4 mph - 0.01 in   Overcast
4:26 AM 60.8 °F 55.4 °F 82% 29.93 in 10.0 mi NNW 8.1 mph - N/A   Mostly Cloudy
4:54 AM 57.9 °F 54.0 °F 87% 29.92 in 10.0 mi NNW 5.8 mph - N/A   Clear
5:54 AM 55.9 °F 50.0 °F 80% 29.94 in 10.0 mi NNW 5.8 mph - N/A   Clear
6:54 AM 54.0 °F 50.0 °F 86% 29.95 in 10.0 mi NW 6.9 mph - N/A   Clear
7:54 AM 53.1 °F 48.0 °F 83% 29.98 in 10.0 mi NW 6.9 mph - N/A   Clear
8:54 AM 55.9 °F 48.0 °F 75% 29.98 in 10.0 mi NW 8.1 mph - N/A   Clear
9:54 AM 59.0 °F 48.9 °F 69% 29.98 in 10.0 mi NNW 10.4 mph - N/A   Clear
10:54 AM 62.1 °F 48.9 °F 62% 29.98 in 10.0 mi North 6.9 mph - N/A   Partly Cloudy
11:18 AM 62.6 °F 48.2 °F 59% 30.00 in 10.0 mi North 12.7 mph - N/A   Mostly Cloudy
11:27 AM 62.6 °F 48.2 °F 59% 30.00 in 10.0 mi North 8.1 mph - N/A   Mostly Cloudy
11:54 AM 63.0 °F 48.9 °F 60% 29.99 in 10.0 mi NNW 10.4 mph - N/A   Overcast
12:54 PM 66.0 °F 50.0 °F 56% 29.99 in 10.0 mi NW 12.7 mph - N/A   Mostly Cloudy
1:54 PM 62.1 °F 48.9 °F 62% 29.99 in 10.0 mi NNW 11.5 mph - N/A   Overcast
2:54 PM 63.0 °F 50.0 °F 63% 29.99 in 10.0 mi North 8.1 mph - N/A   Overcast
3:54 PM 66.0 °F 51.1 °F 59% 29.99 in 10.0 mi North 6.9 mph - N/A   Mostly Cloudy
4:54 PM 62.1 °F 48.0 °F 60% 30.00 in 10.0 mi NNW 12.7 mph 20.7 mph N/A   Overcast
5:54 PM 61.0 °F 48.0 °F 62% 30.02 in 10.0 mi NNW 10.4 mph 18.4 mph N/A   Overcast
6:54 PM 60.1 °F 48.0 °F 64% 30.04 in 10.0 mi NNE 6.9 mph - N/A   Overcast
7:54 PM 57.0 °F 46.9 °F 69% 30.05 in 10.0 mi North 4.6 mph - N/A   Mostly Cloudy
8:54 PM 55.0 °F 46.9 °F 74% 30.07 in 10.0 mi North 4.6 mph - N/A   Mostly Cloudy
9:54 PM 51.1 °F 46.9 °F 86% 30.08 in 10.0 mi Calm Calm - N/A   Clear
10:54 PM 50.0 °F 46.0 °F 86% 30.08 in 10.0 mi Calm Calm - N/A   Clear
11:54 PM 48.0 °F 46.0 °F 93% 30.09 in 10.0 mi Calm Calm - N/A   Clear